• Join FlightAware (Why Join?)
  • Login
  • US Flag GB Flag 
07:59 EST


 

Airport Tracker/Info


-or-


 

Live Flight TrackerFlight Track Log ✈ N201LH ✈ 30-Jun-2013 ✈ KLDM - KHYX

Flight Track Log - Related Links

Times and Time Zones

All times are in EDT time to prevent confusion due to time zone crossing. See the N201LH flight status page for this flight to view local times or setup timezone preferences in your user account.

Time Position Orientation Groundspeed Altitude Reporting Facility
EDT Latitude Longitude Course Direction KTS MPH feet Rate Location/Type
17:26 43.9394 -86.3025 109° East 86 99 3,900  Level Minneapolis Center
17:27 43.9317 -86.2706 109° East 87 100 4,400 480 Climbing Minneapolis Center
17:28 43.9242 -86.2367 107° East 89 102 4,900 240 Climbing Minneapolis Center
17:29 43.9164 -86.1925 104° East 104 120 5,000  Climbing Minneapolis Center
17:30 43.9069 -86.1397 104° East 126 145 5,000  Level Minneapolis Center
17:31 43.8914 -86.0733 108° East 139 160 5,000  Level Minneapolis Center
17:32 43.8797 -86.0172 106° East 145 167 5,000  Level Minneapolis Center
17:33 43.8675 -85.9622 107° East 149 171 5,000  Level Minneapolis Center
17:34 43.8553 -85.9083 107° East 148 170 5,000  Level Minneapolis Center
17:35 43.8481 -85.8528 100° East 148 170 5,000  Level Minneapolis Center
17:36 43.8392 -85.7967 102° East 148 170 5,000  Level Minneapolis Center
17:37 43.8239 -85.7306 108° East 149 171 5,000  Level Minneapolis Center
17:38 43.8114 -85.6767 108° East 148 170 5,000  Level Minneapolis Center
17:40 43.8006 -85.6197 105° East 150 173 5,000  Level Minneapolis Center
17:41 43.7894 -85.5647 106° East 150 173 5,000  Level Minneapolis Center
17:42 43.7786 -85.5097 105° East 149 171 5,000  Level Minneapolis Center
17:43 43.7686 -85.4544 104° East 148 170 5,000  Level Minneapolis Center
17:44 43.7533 -85.3878 108° East 151 174 5,000  Level Minneapolis Center
17:45 43.7439 -85.3328 103° East 149 171 5,000  Level Minneapolis Center
17:46 43.7336 -85.2781 105° East 148 170 5,000  Level Minneapolis Center
17:47 43.7214 -85.2231 107° East 149 171 5,000  Level Minneapolis Center
17:48 43.7122 -85.1678 103° East 149 171 5,000  Level Minneapolis Center
17:49 43.7011 -85.1139 106° East 147 169 5,000  Level Minneapolis Center
17:50 43.6872 -85.0472 106° East 150 173 5,000  Level Minneapolis Center
17:51 43.6725 -84.9831 108° East 147 169 5,000  Level Minneapolis Center
17:52 43.6603 -84.9264 107° East 151 174 5,000  Level Minneapolis Center
17:53 43.6478 -84.8717 108° East 151 174 5,000  Level Minneapolis Center
17:54 43.6367 -84.8167 106° East 150 173 5,000  Level Minneapolis Center
17:55 43.6267 -84.7606 104° East 150 173 5,000  Level Minneapolis Center
17:56 43.6139 -84.6939 105° East 150 173 5,000  Level Minneapolis Center
17:57 43.6033 -84.6506 109° East 150 173 5,000  Level Minneapolis Center
17:58 43.5864 -84.5864 110° East 149 171 5,000  Level Minneapolis Center
17:59 43.5767 -84.5411 106° East 150 173 5,000 -60 Level Minneapolis Center
18:00 43.5633 -84.4711 105° East 154 177 4,900 -240 Descending Minneapolis Center
18:01 43.5533 -84.4150 104° East 154 177 4,600 -300 Descending Minneapolis Center